Tracking 25963 objects as of 13-Aug-2022
HD Live streaming from Space Station
objects crossing your sky now

STARLINK-4188

Track STARLINK-4188 now!
10-day predictions
STARLINK-4188 is classified as:


NORAD ID: 52843
Int'l Code: 2022-062P
Perigee: 521.2 km
Apogee: 523.5 km
Inclination: 53.2 °
Period: 94.9 minutes
Semi major axis: 6893 km
RCS: Unknown
Launch date: June 17, 2022
Source: United States (US)
Launch site: AIR FORCE EASTERN TEST RANGE (AFETR)
aabbcc
Your satellite tracking list
Your tracking list is empty




NASA's NSSDC Master Catalog

Two Line Element Set (TLE):
1 52843U 22062P   22224.83335648 -.01132191  00000-0 -61536-1 0  9998
2 52843  53.2177 131.9048 0001672  53.2811 127.1172 15.16895141  9293
Source of the keplerian elements: AFSPC